NOAA 16 DEB, 42357

Orbit data source: Space-Track

NOAA 16 DEB, 42357 is space debris in SSO originally from a launch on Thu, 21 Sep 2000 UTC launched from the Air Force Western Test Range (AFWTR). Debris objects in space refer to the collection of defunct objects orbiting the Earth. Examples of debris include non-operational satellites, rocket bodies, and fragments generated from explosions, collisions, or faulty payload assembly.

Loading next visibility...
Identifier
42357, 2000-055QZ
Orbit
SSO
Country
Flag of USUS
Related business
Manufacturer
Unknown
Mission
Spacecraft
Bus & Motor
Unknown
Mass
Unknown
Launch date (UTC)
2000-09-21 (25 years ago)
Launch vehicle
Unknown
Launch site
Air Force Western Test Range (AFWTR)
Object type
Payload
Rocket body
Debris
Shape & HBR
Unknown shape, 0.1 m
Radar Cross Section
Small (<0.1 m²)

Expand to show TLE details & history
Last TLE update: 3 days ago

TLE from 3 days ago
0 NOAA 16 DEB
1 42357U 00055QZ  25350.30354364  .00026109  00000-0  44015-2 0  9998
2 42357  98.8044 117.2235 0010556 250.8539 109.1522 14.69418070510743
Epoch: 2025-12-16T07:17Z
TLE epoch observation values (Epoch: 2025-12-16T07:17:06.170Z)
Latitude
-0.00001°
Longitude
-77.24189°
Altitude
668.351 km
Speed
7.522 km/s
True Right ascension
07h 48m 53s
True Declination
0° 00' 00"
Sunlit
Object was in full shadow at epoch
Visualization orbit readout
Latitude
Unknown
Longitude
Unknown
Altitude
Unknown
Speed
Unknown
Apparent Right ascension
Unknown
Apparent Declination
Unknown
Sunlit
N/A
Visualization observer readout
Local Sidereal Time
19:26:10
Azimuth
Unknown
Elevation
Unknown
Doppler factor
Unknown
Orbital elements
Apogee altitude
667.453 km
Perigee altitude
652.595 km
Semi-major axis
7,038.161 km
Eccentricity
0.00106
Inclination
98.8044°
RAAN
117.2235°
Arg. of periapsis
250.8539°
True anomaly
109.26642°
Mean anomaly
109.1522°
Eccentric anomaly
109.20931°
Mean motion
3.67582 °/min
Orbital period
97.94 mins
BSTAR
0.0044015
Loading maneuver chart data...
Computing Atmospheric mass density...
Loading historical data...
Loading historical data...
Loading historical data...
Loading historical data...
Loading historical data...
Loading historical data...
Loading historical data...

Documentation

Showing up to 5 results
|